Starlink 2034

operational
NORAD ID: 47352 Int'l Des: 2021-005 Owner: SPXS Country: US Constellation: starlink
LEOCIRCULARSTARLINK_TYPE

About Starlink 2034

Description loading...

Live Position

Loading 3D Globe...

Upcoming Passes

Altitude History

Altitude vs Time

uPlot chart will show altitude changes over time

Two-Line Element Set

1 47352U 21005D 25303.22868989 .00000152 00000-0 29123-4 0 9993
2 47352 53.0552 287.2818 0001560 114.4550 245.6602 15.06398857263379
Epoch: Oct 30, 2025 • Age: 16 hours

Current Status

Altitude 565.2 km
Velocity 7.58 km/s
Sub-Earth Point -49.26°S, 131.79°W
Launch Date Jan 20, 2021
Age 4.7 years
Type internet

Technical Details

Classification Payload
Mass 260.00 kg
Dry Mass 248.00 kg
Total Mass 260.00 kg
Length 0.20 m
Diameter 2.80 m
Span 9.00 m
Shape Box + pan
Manufacturer SPXS
Bus Type Starlink
Phase Status In Orbit
Owner/State SPXS/US

Large Constellations

Loading constellations...